Regional Weather Roundup
Issued by NWS

Home | Current Version | Previous Version | Text Only | Print | Product List | Glossary Off
Versions: 1 2 3 4 5 6 7 8 9 10 11 12 13 14 15 16 17 18 19 20 21 22 23 24 25 26 27 28 29 30 31 32 33 34 35 36 37 38 39 40 41 42 43 44 45 46 47 48 49 50

000
ASUS43 KDTX 281410
RWRMI
MICHIGAN HOURLY REGIONAL WEATHER ROUNDUP
NATIONAL WEATHER SERVICE DETROIT/PONTIAC MI
900 AM EST WED JAN 28 2015

NOTE: "FAIR" INDICATES FEW OR NO CLOUDS BELOW 12,000 FEET WITH NO
SIGNIFICANT WEATHER AND/OR OBSTRUCTION TO VISIBILITY.

MIZ047>049-052>055-059>063-066>070-074>076-081>083-281500-
SOUTHEAST LOWER MICHIGAN

CITY           SKY/WX    TMP DP  RH WIND       PRES   REMARKS
ADRIAN         MOSUNNY   10   6  84 CALM      30.36R
ALMA           PTCLDY    10   8  92 CALM      30.32R
ANN ARBOR      PTSUNNY   11   9  92 CALM      30.34S
BAD AXE        PTCLDY     4   1  91 CALM      30.34R
DETROIT CITY   MOSUNNY   17  10  74 CALM      30.36R
DETROIT        PTSUNNY   17  11  77 CALM      30.37R
FLINT          PTCLDY    11   6  81 CALM      30.34R
GROSSE ILE     MOSUNNY   14  10  85 CALM      30.35S
HILLSDALE      MOCLDY    10   7  89 CALM      30.32R
HOWELL         PTCLDY    10   8  89 CALM      30.32S

CITY           SKY/WX    TMP DP  RH WIND       PRES   REMARKS
JACKSON        PTCLDY    11   9  92 CALM      30.32S
LAMBERTVILLE   MOSUNNY   12   9  85 CALM      30.37R
LANSING        PTCLDY    14  10  84 S5        30.32F
LAPEER         NOT AVBL
MASON          PTCLDY    12   8  85 S6        30.31F
MT. CLEMENS    MOSUNNY   11   8  87 CALM      30.33R
PONTIAC        PTCLDY     9   6  88 CALM      30.32R
PORT HURON     MOSUNNY    5   3  92 CALM      30.35S
TRI CITIES     PTCLDY    13   8  81 SE5       30.33S
YPSILANTI      PTSUNNY   17  12  80 VRB5      30.35S
$$
MIZ043>046-050>051-056>058-064>065-071>073-077>080-281500-
SOUTHWEST LOWER MICHIGAN

CITY           SKY/WX    TMP DP  RH WIND       PRES   REMARKS
BATTLE CREEK   PTCLDY    14   8  77 S7        30.31S
BENTON HARBOR  PTCLDY    18  12  77 S7        30.31F
BIG RAPIDS     PTCLDY     3   0  88 CALM      30.27S
COLDWATER      PTCLDY    10   7  89 CALM      30.33R
HOLLAND        PTCLDY    17  11  77 S8        30.31S
GRAND RAPIDS   PTCLDY    13   8  81 S7        30.30F
KALAMAZOO      PTCLDY    12   8  84 CALM      30.31F
MARSHALL       PTCLDY    10   7  87 CALM      30.32S
MUSKEGON       MOCLDY    15  10  80 SE7       30.30F
$$
MIZ016>042-281500-
NORTHERN LOWER MICHIGAN

CITY           SKY/WX    TMP DP  RH WIND       PRES   REMARKS
BEAVER ISLAND  CLOUDY    21  18  91 CALM      30.25S
BELLAIRE       PTCLDY     1  -3  84 CALM      30.30F
CADILLAC       MOCLDY     0  -7  72 CALM      30.24R
CHARLEVOIX     PTCLDY     6   3  86 SE6       30.29F
FRANKFORT      MOSUNNY   17   7  64 SE3       30.28S
GAYLORD        PTCLDY    -6  -8  91 CALM      30.24R
GRAYLING       PTCLDY    -7 -12  76 CALM      30.28R
HARBOR SPRINGS PTCLDY     2  -2  82 E7        30.26F
HOUGHTON LAKE  PTCLDY    -1  -7  75 N3        30.27S
MANISTEE       PTCLDY     7   3  85 E5        30.29R
OSCODA         PTCLDY     4  -1  79 CALM      30.32S
PELLSTON       PTCLDY    -6 -10  83 CALM      30.28F
TRAVERSE CITY  PTCLDY     4   2  91 CALM      30.28S
$$
MIZ007>008-015-281500-
EASTERN UPPER MICHIGAN

CITY           SKY/WX    TMP DP  RH WIND       PRES   REMARKS
KINROSS        PTCLDY     3   0  85 SE3       30.26F
MACKINAC ISLAN MOCLDY    14   0  54 S6        30.26F
NEWBERRY       CLOUDY    14  10  85 S6        30.23R
S. S. MARIE    PTCLDY     2  -3  80 E6        30.26F
$$
MIZ004>006-011>014-085-281500-
CENTRAL UPPER MICHIGAN

CITY           SKY/WX    TMP DP  RH WIND       PRES   REMARKS
MANISTIQUE     MOCLDY    13  12  94 CALM      30.23R
ESCANABA       CLOUDY    21  16  79 S7        30.22F
MENOMINEE      PTCLDY    23  18  80 S7        30.22S
SAWYER-GWINN   CLOUDY    21  16  79 S12       30.14S
$$
MIZ001>003-009>011-084-281500-
WESTERN UPPER MICHIGAN

CITY           SKY/WX    TMP DP  RH WIND       PRES   REMARKS
IRON MOUNTAIN  CLOUDY    22  16  78 SE8       30.14S
HOUGHTON       CLOUDY    23  18  81 S7        30.08S HAZE
COPPER HARBOR    N/A     27  20  75 CALM      30.13R
IRONWOOD       CLOUDY    25  21  86 S9        30.02S
$$

ABBREVIATIONS USED IN REMARKS
   TC - TEMPERATURE IN CELSIUS
  WCI - WIND CHILL INDEX
   HX - HEAT INDEX
  VSB - VISIBILITY




USA.gov is the U.S. government's official web portal to all federal, state and local government web resources and services.